Location: Fort Wayne
(41.1310°N, 85.1290°W)
Time: 18:25:54
(UTC-04:00)

Gbstr 26 Del rocket - Visible Passes

Search period start: 23 May 2017 00:00
Search period end: 02 June 2017 00:00
Orbit: 494 x 1265 km, 51.8° (Epoch: 22 May)

Date Brightness Start Highest point End Pass type
(mag) Time Alt. Az. Time Alt. Az. Time Alt. Az.
23 May 4.6 22:02:28 10° NW 22:10:15 88° SW 22:17:06 16° SE visible
23 May 5.6 23:50:40 10° WNW 23:57:14 29° SW 23:59:40 24° SSW visible
24 May 4.6 21:58:09 10° NW 22:05:54 78° SW 22:12:58 15° SE visible
24 May 5.9 23:46:42 10° WNW 23:52:41 24° WSW 23:55:31 19° SSW visible
25 May 4.7 21:53:52 10° WNW 22:01:31 68° SW 22:08:52 13° SE visible
25 May 6.1 23:42:55 10° W 23:48:07 19° WSW 23:51:26 15° SSW visible
26 May 4.9 21:49:35 10° WNW 21:57:06 58° SW 22:04:52 11° SSE visible
26 May 6.4 23:39:24 10° W 23:43:32 15° WSW 23:47:26 11° SSW visible
27 May 5.1 21:45:20 10° WNW 21:52:40 49° SW 22:00:24 10° SSE visible
27 May 6.6 23:36:35 10° W 23:38:56 11° WSW 23:41:18 10° SW visible
28 May 5.4 21:41:09 10° WNW 21:48:13 41° SW 21:55:41 10° SSE visible
29 May 5.7 21:37:00 10° WNW 21:43:44 35° SW 21:50:50 10° S visible
30 May 6.0 21:32:56 10° WNW 21:39:15 29° SW 21:45:54 10° S visible
31 May 6.2 21:28:59 10° WNW 21:34:44 24° SW 21:40:46 10° S visible
